Location: ?????????
(55.4040°N, 38.8586°E)
Time: 17:58:08
(UTC+00:00)

Daily predictions for brighter satellites

Satellite Brightness Start Highest point End
(mag) Time Altitude Azimuth Time Altitude Azimuth Time Altitude Azimuth
RESURS DK-1 3.9 13:37:52 10° NNW 13:40:47 18° NNE 13:43:41 10° ENE
CZ-4B R/B 4.4 13:38:11 10° ESE 13:42:09 24° NE 13:46:04 10° N
SL-16 R/B 2.8 13:36:21 10° NNE 13:42:38 75° WNW 13:48:53 10° SSW
Aureole 3 Rocket 3.0 13:37:54 10° N 13:43:00 80° ENE 13:46:44 10° SSE
Cosmos 2297 Rocket 2.3 13:43:16 10° SW 13:48:55 81° WNW 13:54:39 10° NNE
Cosmos 407 Rocket 4.0 13:44:33 10° NNW 13:49:22 36° NE 13:54:07 10° ESE
Cosmos 1634 Rocket 4.1 13:43:01 10° NNW 13:49:22 88° E 13:55:42 10° S
Cosmos 1606 2.5 13:45:51 10° S 13:49:29 84° E 13:53:11 10° NNE
Cosmos 1953 Rocket 3.6 13:45:02 10° N 13:49:32 84° E 13:53:58 10° SSE
USA 305 3.5 13:46:36 10° W 13:50:16 50° SSW 13:54:01 10° SE
Cosmos 2298 Rocket 4.1 13:45:40 10° SSW 13:50:59 86° ESE 13:56:22 10° NNE
SMAP 3.4 13:46:59 10° SE 13:51:22 42° ENE 13:55:46 10° N
Cosmos 1500 3.2 13:51:02 10° N 13:54:29 48° ENE 13:57:55 10° SSE
Cosmos 2219 3.5 13:50:11 10° S 13:55:36 52° ESE 14:01:04 10° NE
Cosmos 2251 Rocket 3.9 13:51:31 10° NNW 13:56:37 43° NE 14:01:42 10° ESE
Helios 1B rocket 2.3 13:53:09 10° SSE 13:57:04 73° ENE 14:01:02 10° NNW
UNK 4.4 13:53:08 10° N 13:57:39 55° WNW 14:02:10 10° SW
H-2A R/B 3.7 13:54:25 10° SSW 13:59:05 37° W 14:03:42 10° NNW
CZ-4B R/B 4.2 13:56:40 10° SE 13:59:58 35° ENE 14:03:22 10° N
NOSS 3-3 (C) 4.0 13:58:12 10° SW 14:04:00 85° NW 14:10:42 11° NE
NOSS 3-3 (A) 4.0 13:58:35 10° SW 14:04:21 84° NW 14:11:01 11° NE
Cosmos 2142 Rocket 4.4 13:58:36 10° N 14:04:46 73° ENE 14:10:54 10° SSE
Cosmos 1833 Rocket 4.1 14:02:40 10° NNW 14:06:51 20° NNE 14:10:23 12° ENE
Cosmos 405 Rocket 2.8 14:04:07 10° S 14:07:52 59° E 14:11:42 10° NNE
SJ-11-01 4.3 14:05:10 10° SSE 14:09:50 90° E 14:14:31 10° NNW
ISS -0.9 14:08:01 10° WSW 14:10:28 19° SSW 14:12:55 10° SSE
Cosmos 2082 4.1 14:05:33 10° S 14:10:50 45° ESE 14:16:02 11° NE
Cosmos 1862 4.1 14:08:29 10° NNW 14:12:18 53° W 14:16:08 10° S
Cosmos 2279 Rocket 4.0 14:07:05 10° NNW 14:13:23 89° E 14:19:37 10° S
Cosmos 2151 3.1 14:09:40 10° NNW 14:13:57 82° W 14:18:13 10° S
COSMO-SKYMED 1 4.3 14:15:04 13° ENE 14:15:36 14° E 14:17:47 10° ESE
Lacrosse 4 Rocket 1.4 14:13:49 10° NW 14:18:14 84° NE 14:22:30 10° SE
Cosmos 1023 Rocket 4.4 14:13:43 10° NNW 14:18:54 70° ENE 14:24:00 10° SE
Cosmos-2242 4.0 14:15:53 10° SE 14:19:31 27° E 14:23:00 11° NNE
Cosmos 2058 Rocket 3.0 14:16:50 10° S 14:21:13 66° E 14:25:35 10° NNE
Cosmos 1190 Rocket 4.5 14:16:19 10° NNW 14:21:20 39° NE 14:26:18 10° ESE
SL-08 RB Rocket 4.4 14:18:08 10° S 14:22:33 58° W 14:27:02 10° NNW
Cosmos 1606 Rocket 4.3 14:23:14 10° SSW 14:27:35 53° WNW 14:31:57 10° N
Cosmos 1726 Rocket 4.0 14:24:01 10° SSW 14:28:26 66° WNW 14:32:52 10° N
CZ-2D R/B 3.8 14:27:34 10° S 14:31:11 58° W 14:34:50 10° NNW
YAOGAN 11 4.2 14:30:44 10° NNE 14:35:16 64° ESE 14:39:47 10° S
Cosmos 1812 3.3 14:33:42 10° SSE 14:36:59 31° E 14:38:46 20° NE
Cosmos 2263 Rocket 2.3 14:31:43 10° SSW 14:37:10 58° ESE 14:41:40 15° NE
AQUARIUS 4.1 14:32:43 10° SSE 14:37:11 76° ENE 14:41:40 10° NNW
Cosmos 44 Rocket 4.4 14:32:50 10° NW 14:37:32 32° NNE 14:40:18 20° ENE
Cosmos 1844 Rocket 4.1 14:34:33 10° SE 14:38:01 17° E 14:38:39 17° E
Nadezhda 4 Rocket 4.1 14:32:13 10° SSE 14:38:05 50° E 14:43:59 10° NNE
BREEZE-M DEB (TANK) 4.0 14:34:49 10° SW 14:38:36 57° SSE 14:48:29 17° ENE
Cosmos 2084 4.4 14:36:50 10° WNW 14:40:10 28° N 14:41:59 19° NE
Cosmos 1437 Rocket 4.4 14:37:00 10° NNW 14:40:24 35° W 14:43:50 10° SSW
CORIOLIS 4.2 14:35:31 10° SSE 14:40:53 85° WSW 14:46:20 10° NNW
CZ-2C R/B 3.4 14:39:12 10° S 14:42:42 54° WSW 14:46:17 10° NNW
Meteor 1-20 Rocket 4.1 14:37:54 10° NNW 14:43:28 73° ENE 14:49:07 10° SSE
Cosmos 2082 Rocket 3.8 14:39:52 10° NNW 14:43:42 18° NNE 14:45:41 15° NE
Cosmos 2227 Rocket 2.6 14:39:37 10° SW 14:45:13 60° NW 14:50:24 12° NNE
USA 276 4.0 14:44:41 10° S 14:45:56 13° SSE 14:46:24 13° SE
Cosmos 1140 Rocket 3.6 14:41:16 10° NNW 14:46:30 82° WSW 14:51:38 10° SSE
Cosmos 1766 Rocket 4.3 14:43:21 10° N 14:47:10 28° ENE 14:50:56 10° SE
ATLAS CENTAUR R/B 3.6 14:46:05 10° WNW 14:49:49 42° SSW 14:56:36 10° SE
ADEOS 3.9 14:46:45 10° SE 14:51:39 43° ENE 14:56:36 10° N
NOSS 8 (A) 4.3 14:50:13 10° SW 14:53:37 58° SE 14:54:27 40° E
YAOGAN 1 3.4 14:52:56 26° E 14:53:42 28° ENE 14:57:23 10° N
Cosmos 1603 3.8 14:48:57 10° NW 14:54:42 84° WSW 15:00:22 10° SSE
DMSP B5D2-2 4.0 14:50:41 10° NNE 14:55:56 84° ESE 15:01:10 10° SSW
Cosmos 1933 4.4 14:53:58 10° SSE 14:56:42 25° ESE 14:56:42 25° ESE
Cosmos 1666 3.7 14:55:13 10° NNW 14:58:36 44° W 15:01:58 10° SSW
CBERS 1 LM4 rocket 4.2 14:57:37 10° SSE 15:02:21 69° ENE 15:07:04 10° NNW
SKYMED 2 4.2 15:03:42 32° E 15:04:13 33° E 15:08:08 10° SSE
Meteor PRIRODA 4.3 15:06:54 32° NNE 15:06:54 32° NNE 15:09:13 10° N
SL-08 R/B 4.3 15:07:56 26° ESE 15:07:56 26° ESE 15:11:08 10° SSE
Meteor 1-31 Rocket 3.7 15:05:51 10° S 15:09:26 48° W 15:13:04 10° NNW
CZ-4B R/B 3.4 15:09:18 36° E 15:09:47 37° ENE 15:13:38 10° N
OPS 6432 4.3 15:07:22 10° NW 15:10:28 52° NNE 15:10:28 52° NNE
EO 1 Delta rocket 4.5 15:05:16 10° SE 15:11:09 45° ENE 15:16:00 10° N
Cosmos 1607 4.1 15:08:42 10° SW 15:15:06 77° NW 15:19:10 25° NE
Cosmos 676 Rocket 4.0 15:10:06 10° NNW 15:15:22 58° NE 15:19:20 17° SE
ATLAS 2AS CENTAUR R/B 2.6 15:08:43 10° NW 15:15:49 86° NE 15:21:39 14° SE
Cosmos 1943 4.3 15:13:11 10° NW 15:18:32 46° WSW 15:23:53 10° S
RESURS DK-1 2.3 15:15:18 10° NNW 15:19:24 62° NE 15:20:29 44° ESE
CZ-4B R/B 3.6 15:15:22 10° SSE 15:20:25 75° WSW 15:25:21 10° NNW
Helios 1A 2.8 15:22:23 37° NNE 15:23:55 66° ESE 15:28:02 10° S
Radarsat Rocket 4.0 15:19:12 10° SSE 15:25:03 85° WSW 15:31:21 10° NNW
Cosmos 1812 Rocket 3.4 15:22:13 10° S 15:26:33 84° ESE 15:29:15 23° NNE
NOAA 6 4.1 15:22:33 10° SSE 15:27:42 82° WSW 15:32:52 10° NNW
Cosmos 1271 Rocket 3.6 15:24:11 10° N 15:26:37 34° NNE 15:26:37 34° NNE
Cosmos 1782 2.8 15:24:14 10° S 15:27:49 56° ESE 15:27:49 56° ESE
Cosmos 407 Rocket 4.3 15:26:31 10° NW 15:31:32 51° WSW 15:36:28 10° S
Cosmos 2297 Rocket 3.8 15:29:01 10° W 15:33:49 27° NNW 15:37:23 15° NNE
Cosmos 2344 3.6 15:26:55 10° SSW 15:34:05 54° SE 15:37:03 34° ENE
CZ-4B DEB 4.2 15:29:08 10° SE 15:34:31 57° ENE 15:39:58 10° NNW
ADEOS Rocket 3.7 15:35:52 30° NE 15:35:52 30° NE 15:40:08 10° N
Cosmos 2219 4.1 15:34:34 10° WSW 15:39:55 43° NW 15:43:29 20° NNE
Cosmos 1741 Rocket 4.4 15:37:19 10° NNW 15:42:03 42° NE 15:42:03 42° NE
Okean 3 Rocket 4.5 15:38:32 10° N 15:41:21 35° NNE 15:41:21 35° NNE
Cosmos 1850 Rocket 4.4 15:39:02 10° NNW 15:43:36 43° NE 15:43:36 43° NE
Timation 2 Rocket 4.1 15:39:56 10° S 15:45:31 44° ESE 15:45:41 44° ESE
Cosmos 1954 Rocket 4.0 15:40:56 10° NNW 15:46:14 82° WSW 15:51:05 12° SSE
Cosmos 1844 4.1 15:43:28 10° S 15:48:29 43° ESE 15:48:29 43° ESE
Cosmos 2056 Rocket 4.1 15:44:14 10° S 15:48:24 41° SE 15:48:24 41° SE
S3M 4.1 15:44:46 10° N 15:50:40 48° ENE 15:50:40 48° ENE
USA 234 3.5 15:50:14 42° ESE 15:51:54 51° SE 15:58:15 10° SW
Cosmos 1833 Rocket 2.9 15:46:41 10° NNW 15:52:06 47° NE 15:52:06 47° NE
COSMO-SKYMED 1 2.4 15:52:17 80° NE 15:52:28 84° ESE 15:56:50 10° SSW
Meteor 1-14 Rocket 4.1 15:47:20 10° N 15:52:51 61° ENE 15:53:30 56° ESE
Cosmos 1553 Rocket 3.9 15:46:29 10° N 15:52:52 77° ENE 15:59:07 10° SSE
Lacrosse 5 2.9 15:48:45 10° SSW 15:52:30 32° SSE 15:52:30 32° SSE
Cosmos 2082 4.4 15:49:31 10° WSW 15:54:58 48° NW 15:57:54 26° NNE
Lacrosse 4 Rocket 4.3 15:53:06 10° WNW 15:56:05 18° WSW 15:59:02 10° SSW
Cosmos-2242 4.1 15:52:34 10° SW 15:56:44 44° WNW 15:59:41 18° N
Meteor 2-2 Rocket 4.5 15:54:30 10° SSW 16:00:18 73° WNW 16:05:55 12° NNE
PAYLOAD B 4.1 15:59:55 58° ESE 16:00:48 68° ENE 16:06:21 10° NNW
Cosmos 2026 Rocket 4.0 15:59:19 10° SSW 16:05:37 82° WNW 16:12:03 10° N
COSMOS 2406 4.4 16:01:07 10° NNW 16:04:56 27° NNE 16:04:56 27° NNE
Cosmos 2221 4.3 16:02:50 10° S 16:04:18 21° S 16:04:18 21° S
Cosmos 1818 3.4 16:02:37 10° SW 16:08:02 74° SE 16:08:07 74° SE
Cosmos 1371 Rocket 4.5 16:08:19 10° SSW 16:12:11 48° S 16:12:11 48° S
CZ-4B R/B 3.5 16:19:50 56° NNE 16:19:50 56° NNE 16:24:20 10° NNW
Cosmos 44 Rocket 3.8 16:14:39 10° NW 16:18:59 55° NNW 16:18:59 55° NNW
Cosmos 1844 Rocket 2.7 16:15:27 10° SSW 16:20:21 67° S 16:20:21 67° S
Meteor 1-26 Rocket 4.1 16:15:27 10° SSW 16:21:03 89° WNW 16:21:52 68° NNE
Cosmos 2263 Rocket 3.3 16:16:08 10° WSW 16:21:22 39° NW 16:23:22 30° N
Cosmos 1092 Rocket 4.3 16:17:02 10° SSW 16:23:06 63° WNW 16:29:15 10° N
Cosmos 2082 Rocket 3.5 16:24:14 10° NNW 16:27:31 29° N 16:27:31 29° N
YAOGAN 1 3.5 16:29:58 46° W 16:29:58 46° W 16:33:45 10° NNW
Cosmos 2227 Rocket 4.0 16:25:58 10° WNW 16:30:26 23° NNW 16:32:12 20° N
Cosmos 1417 Rocket 4.5 16:30:57 10° NNW 16:37:16 80° W 16:39:18 46° S
ATLAS 2AS CENTAUR R/B 4.1 17:00:08 10° WNW 17:06:06 32° WSW 17:09:08 22° SSW
Cosmos 2297 Rocket 4.4 17:16:13 10° NW 17:19:11 17° NNW 17:19:11 17° NNW
ADEOS Rocket 4.2 17:22:48 33° NNW 17:22:48 33° NNW 17:26:05 10° NNW
USA 234 4.1 17:37:35 45° WSW 17:37:35 45° WSW 17:41:53 10° WSW
Lacrosse 5 4.4 17:30:46 10° WSW 17:31:43 16° WSW 17:31:43 16° WSW
Cosmos 1833 Rocket 4.3 17:30:46 10° NW 17:33:48 30° WNW 17:33:48 30° WNW
Cosmos 2344 4.0 17:41:11 10° WSW 17:47:04 54° WNW 17:47:04 54° WNW
